Location: ????????
(55.6189°N, 38.3031°E)
Time: 14:38:30
(UTC+00:00)

Cosmos 1802 Rocket - Pass Details

Date: 15 November 2019
Orbit: 954 x 1012 km, 82.9° (Epoch: 06 December)

Event Time Altitude Azimuth Distance (km) Brightness Sun altitude
Rises 04:03:54 0° 214° (SW) 3,739 6.9 -8.0°
Reaches altitude 10° 04:06:35 10° 221° (SW) 2,792 6.2 -7.6°
Maximum altitude 04:12:41 44° 292° (WNW) 1,372 4.4 -6.8°
Drops below altitude 10° 04:18:48 10° 4° (N) 2,790 6.2 -6.0°
Sets 04:21:29 0° 11° (N) 3,737 6.9 -5.7°
